This is the latest recevied weather packets stored in our database for station/object SA3ARQ-13. If no packets are shown the sender has not sent any weather packets the latest 10 day(s).
| Time | Temp. | Humidity | Pressure | Rain* | Wind** | Luminosity | Snow |
|---|---|---|---|---|---|---|---|
| 1777736230 | 25° C | 31% | 1005.2 hPa | - | - | - | - |
| 1777735330 | 25° C | 31% | 1005.2 hPa | - | - | - | - |
| 1777734430 | 25.56° C | 31% | 1005.2 hPa | - | - | - | - |
| 1777733530 | 25.56° C | 31% | 1005.2 hPa | - | - | - | - |
| 1777732630 | 25.56° C | 31% | 1005.5 hPa | - | - | - | - |
| 1777731730 | 25° C | 31% | 1005.5 hPa | - | - | - | - |
| 1777729930 | 24.44° C | 32% | 1005.8 hPa | - | - | - | - |
| 1777729030 | 24.44° C | 32% | 1005.9 hPa | - | - | - | - |
| 1777728130 | 24.44° C | 32% | 1006 hPa | - | - | - | - |
| 1777727230 | 24.44° C | 31% | 1006.4 hPa | - | - | - | - |
| 1777726330 | 23.89° C | 32% | 1006.3 hPa | - | - | - | - |
| 1777725430 | 23.89° C | 32% | 1006.6 hPa | - | - | - | - |
| 1777724530 | 23.33° C | 32% | 1006.8 hPa | - | - | - | - |
| 1777723630 | 23.33° C | 34% | 1007.1 hPa | - | - | - | - |
| 1777722730 | 23.33° C | 33% | 1007.1 hPa | - | - | - | - |
| 1777721830 | 23.33° C | 33% | 1007.3 hPa | - | - | - | - |
| 1777720930 | 22.78° C | 35% | 1007.5 hPa | - | - | - | - |
| 1777720030 | 22.78° C | 34% | 1007.7 hPa | - | - | - | - |
| 1777719130 | 22.22° C | 34% | 1007.9 hPa | - | - | - | - |
| 1777718229 | 22.22° C | 34% | 1008 hPa | - | - | - | - |
| 1777717329 | 22.22° C | 34% | 1008 hPa | - | - | - | - |
| 1777716429 | 22.22° C | 34% | 1008.2 hPa | - | - | - | - |
| 1777715529 | 22.22° C | 33% | 1008.3 hPa | - | - | - | - |
| 1777714629 | 22.22° C | 34% | 1008.5 hPa | - | - | - | - |
| 1777713729 | 21.67° C | 34% | 1008.6 hPa | - | - | - | - |
* Rain since midnight (hover to see other rain measurements)
** Current wind speed in m/s (hover to see current wind gust speed)